Lid_Strength_Index
-0 1 -0 1 6 6 9 8 7 7 7 6 5 5 6 5 6 8 1 -0 -1 -1 -1 -1 -1 -2 -2 -2 -2 -2 -2 -2 -2 -2 -2 -2 -2 -2 -2 -2 -2 -2 -2 -2 -2 -2 -2 -1 -1
1 2 1 3 7 9 9 7 8 7 5 4 5 5 5 6 4 3 2 -0 -1 -1 -1 -1 -1 -1 -1 -2 -2 -2 -2 -2 -2 -2 -2 -2 -2 -2 -2 -2 -2 -2 -2 -2 -2 -2 -2 -1 -1
2 3 3 5 7 9 9 7 7 6 5 6 5 4 5 5 3 2 0 -0 -1 -1 -1 -1 -1 -1 -1 -2 -2 -2 -2 -2 -2 -2 -2 -2 -2 -2 -2 -2 -2 -2 -2 -2 -2 -2 -2 -1 -2
2 2 4 7 9 8 7 7 6 6 6 6 5 6 4 2 2 1 -0 -1 -0 -1 -1 -1 -1 -1 -1 -2 -2 -2 -2 -2 -2 -2 -2 -2 -2 -2 -2 -2 -2 -2 -2 -2 -2 -1 -1 -1 -1
3 3 7 8 8 8 7 7 6 6 6 5 4 6 5 2 1 0 -0 -0 -0 -1 -1 -1 -1 -1 -1 -2 -2 -2 -2 -2 -2 -2 -2 -2 -2 -1 -1 -1 -2 -2 -2 -2 -2 -1 1 1 0
4 4 8 9 9 8 7 6 6 5 6 5 5 5 4 1 1 1 -0 -0 -1 -0 -1 -1 1 -0 -1 -1 -2 -2 -2 -2 -2 -2 -1 -2 -2 -2 -2 -1 -1 -2 -2 -2 -1 -1 -0 0 -0
5 6 8 8 9 9 7 6 6 6 6 6 4 6 4 3 1 0 -0 -0 -1 -1 -1 -1 -1 -1 1 -0 -1 -1 -2 -2 -2 -2 -2 -2 -2 -2 -2 -2 -2 -2 -1 -1 -1 -0 0 0 -0
5 6 9 9 9 9 7 6 6 6 6 5 3 6 5 2 1 0 0 0 -0 -1 -1 -1 -1 -1 -1 -2 1 0 -1 -1 -1 -1 -1 -0 -1 -2 -2 -1 -2 -1 -1 -1 -0 0 0 -0 -1
7 8 9 9 9 8 7 7 7 6 6 5 4 5 3 1 1 1 1 1 1 0 -0 -1 -1 -1 -1 -1 -0 1 1 0 -0 0 1 1 -1 -2 -1 -1 -1 -1 -0 -0 -0 1 1 1 1
7 9 9 8 8 8 7 7 7 7 7 6 6 5 5 2 2 3 3 3 2 1 0 -0 -1 -1 -1 -1 -1 -1 -1 -1 -1 -1 -0 -1 -1 -2 -1 0 0 -0 -0 0 1 1 2 2 1
8 9 9 8 8 8 7 8 6 7 7 6 6 5 5 3 3 3 2 2 2 1 0 -0 -1 -1 -1 -1 -1 -1 -1 -1 -1 -1 -1 -0 0 0 -0 -1 -0 0 2 1 2 2 2 2 2
9 9 8 8 8 8 8 7 8 7 6 6 5 5 4 3 3 3 3 2 2 1 1 0 -1 -1 -1 -1 -1 -1 -1 -1 -1 -1 -0 -0 1 1 1 0 1 1 2 2 2 3 3 3 4
8 9 8 8 8 8 8 8 8 7 6 6 6 7 5 3 3 2 2 1 1 1 1 1 0 -1 -1 -1 -1 -1 0 -1 -1 -1 -0 -0 1 2 2 2 2 4 4 3 3 4 4 5 6
8 8 8 8 8 8 8 8 8 7 7 7 7 6 5 4 3 2 2 2 2 1 1 1 1 -1 -1 -1 -1 -1 -0 -0 -0 -0 0 -0 1 3 2 4 4 6 6 5 4 4 5 7 9
8 9 8 8 8 8 8 9 9 6 7 7 7 6 6 5 3 3 2 2 1 1 2 3 2 0 0 1 -0 -1 0 0 1 1 0 1 2 3 3 6 6 8 7 6 6 6 6 9 11
9 9 10 9 9 9 8 10 7 7 7 7 6 6 6 6 5 3 2 2 1 1 3 4 4 3 3 2 2 3 3 3 3 1 2 2 3 4 6 9 8 9 8 8 8 7 8 10 11
10 11 11 10 8 9 9 9 7 8 8 7 6 6 6 6 6 5 3 1 1 2 3 4 4 3 4 5 5 5 6 7 8 6 5 4 5 7 6 9 10 9 8 8 8 9 9 11 12
11 12 11 11 9 10 9 10 7 7 8 7 6 6 6 6 6 5 5 3 1 2 3 3 3 3 4 6 7 7 8 9 8 8 9 7 8 8 8 11 11 8 9 10 10 11 11 12 13
11 11 11 10 9 10 10 10 8 7 7 7 6 6 5 5 4 5 6 5 4 3 3 3 3 3 3 6 7 7 7 9 10 8 9 10 9 10 10 11 10 8 10 11 11 12 13 14 13
11 11 11 10 9 10 10 10 9 7 7 7 6 6 5 5 6 7 7 6 6 5 4 4 4 4 4 4 5 7 9 10 10 10 8 9 10 10 11 11 11 11 11 12 12 13 13 13 12
11 11 11 12 10 11 11 11 10 8 8 7 6 6 6 6 7 7 8 7 6 6 5 5 4 4 4 4 6 9 12 12 12 12 12 10 11 11 12 12 13 12 11 12 12 12 13 13 12
12 10 10 11 12 13 11 15 10 8 8 7 6 6 6 7 7 7 8 8 7 6 5 5 5 5 5 6 7 7 9 10 9 11 12 13 13 13 13 14 13 13 12 12 12 12 10 11 13
11 10 10 11 11 12 12 13 11 10 9 8 6 6 7 8 8 8 8 8 7 7 6 5 5 6 7 7 7 7 8 8 9 10 12 14 14 14 15 15 15 14 14 14 13 14 12 11 12
10 10 11 11 11 15 11 12 12 10 9 7 7 8 8 8 9 10 9 9 8 7 7 6 6 6 8 8 8 8 8 10 11 11 13 15 15 15 16 16 16 15 16 14 14 14 13 12 12
10 10 15 17 17 17 13 13 11 8 8 8 8 8 8 9 9 10 10 9 9 8 7 7 6 7 7 7 7 8 9 10 11 13 12 14 16 17 17 17 17 16 17 16 15 14 14 13 14
11 10 14 20 18 14 14 15 11 8 7 7 8 8 9 9 10 10 10 9 9 9 8 7 7 8 8 8 8 9 11 12 12 11 12 14 14 15 17 17 17 18 17 17 17 16 16 14 14
11 13 9 13 16 16 13 11 10 9 9 9 9 9 9 10 10 10 10 10 9 9 9 8 8 8 8 9 10 11 12 12 12 14 14 15 16 17 18 18 18 17 16 17 16 16 16 15 15
10 8 13 13 20 20 14 14 13 10 10 9 9 9 10 10 10 10 10 10 9 9 8 8 8 8 8 9 10 11 12 12 13 14 16 16 17 18 18 18 19 19 18 17 16 17 16 16 16
12 13 12 11 14 18 18 14 10 9 9 10 9 9 9 10 10 10 10 10 10 9 8 8 9 8 9 10 10 12 12 13 14 15 15 16 17 18 18 19 19 19 19 18 18 17 17 17 18
11 11 12 15 17 14 15 15 10 10 9 9 9 10 10 9 10 10 10 10 10 10 9 9 9 9 10 10 11 12 13 14 15 15 16 17 17 18 19 19 19 19 19 18 18 18 17 18 18